Home   Weather   Townsville   Past weeks

Flag for Australia Past Weather in Townsville, Queensland, Australia — Yesterday and Last 2 Weeks

77 °F

Passing clouds.

Feels Like: 79 °F
Forecast: 75 / 81 °F
Wind: 14 mph from East

Location: Townsville Amo

Current Time: Oct 21, 2016 at 7:18:01 PM

Latest Report: Oct 21, 2016 at 7:00 PM

Visibility: N/A

Pressure: 30.01 "Hg

Humidity: 65%

Dew Point: 64 °F

Location of TownsvilleLocation

Past Weather in Townsville — Graph


Townsville Temperature Yesterday

Maximum temperature yesterday: 86 °F (at 10:00 AM)
Minimum temperature yesterday: 77 °F (at 4:00 AM)
Average temperature yesterday: 81 °F

High & Low Weather Summary for the Past Weeks

High88 °F (Oct 12, 2:00 PM)100% (Oct 12, 4:30 AM)30.15 "Hg (Oct 12, 4:30 AM)
Low64 °F (Oct 9, 6:00 AM)31% (Oct 8, 12:00 PM)29.80 "Hg (Oct 11, 1:30 PM)
Average78 °F65%29.97 "Hg
* Reported Oct 6 6:00 PM — Oct 21 6:00 PM, Townsville, Weather by CustomWeather, © 2016

Note: Actual official high and low records may vary slightly from our data, if they occured in-between our weather recording intervals... More about our weather records


Townsville Weather History for the Previous 24 Hours

Scroll right to see more
Time TempWeatherWind HumidityBarometerVisibility
6:00 PM
Fri, Oct 21
79 °FSunny.14 mph61%30.01 "HgN/A
5:00 PM81 °FPassing clouds.15 mph58%29.98 "HgN/A
4:00 PM82 °FPassing clouds.18 mph55%29.98 "HgN/A
3:30 PM82 °FPassing clouds.18 mph55%29.98 "HgN/A
3:00 PM84 °FSunny.18 mph51%29.98 "HgN/A
2:00 PM82 °FPassing clouds.18 mph55%29.98 "HgN/A
1:30 PM84 °FPassing clouds.18 mph51%30.01 "HgN/A
1:00 PM84 °FPassing clouds.17 mph48%30.01 "HgN/A
12:00 PM84 °FPassing clouds.16 mph51%30.01 "HgN/A
11:30 AM84 °FPassing clouds.16 mph51%30.04 "HgN/A
11:00 AM84 °FPassing clouds.14 mph51%30.04 "HgN/A
10:30 AM84 °FPassing clouds.15 mph51%30.07 "HgN/A
10:00 AM84 °FPassing clouds.16 mph51%30.07 "HgN/A
9:00 AM82 °FScattered clouds.17 mph55%30.07 "HgN/A
8:30 AM81 °FScattered clouds.16 mph58%30.07 "HgN/A
8:00 AM81 °FScattered clouds.16 mph62%30.07 "HgN/A
7:00 AM79 °FScattered clouds.9 mph61%30.04 "HgN/A
6:00 AM77 °FPassing clouds.13 mph61%30.04 "HgN/A
5:30 AM77 °FClear.14 mph61%30.01 "HgN/A
5:00 AM75 °FPassing clouds.8 mph74%30.01 "HgN/A
4:00 AM77 °FPartly cloudy.17 mph69%29.98 "HgN/A
3:00 AM77 °FPassing clouds.12 mph65%29.98 "HgN/A
2:00 AM79 °FPartly cloudy.14 mph65%30.01 "HgN/A
1:30 AM77 °FMostly cloudy.13 mph69%30.01 "HgN/A
1:00 AM79 °FPartly cloudy.16 mph65%30.01 "HgN/A
12:00 AM77 °FPassing clouds.14 mph69%30.01 "HgN/A
11:00 PM
Thu, Oct 20
79 °FPassing clouds.9 mph70%30.04 "HgN/A
10:30 PM79 °FPartly cloudy.15 mph70%30.04 "HgN/A
10:00 PM79 °FSprinkles. Overcast.17 mph70%30.04 "HgN/A
9:00 PM79 °FPartly cloudy.14 mph65%30.01 "HgN/A
8:00 PM79 °FPassing clouds.15 mph70%30.01 "HgN/A
7:00 PM79 °FPassing clouds.14 mph70%29.98 "HgN/A
Weather by CustomWeather, © 2016

See weather overviewHow to use our weather pages